Change the Weather History Date:

Thursday, January 31, 2013

  Actual Average Record
Temperature  
Mean Temperature 70 °F -  
Max Temperature 75 °F 75 °F 85 °F (1991)
Min Temperature 66 °F 64 °F 47 °F (1966)
Cooling Degree Days 6    
Growing Degree Days 20 (Base 50)    
Moisture  
Dew Point 64 °F    
Average Humidity 79    
Maximum Humidity 91    
Minimum Humidity 65    
Precipitation  
Precipitation 0.03 in - - ()
Sea Level Pressure  
Sea Level Pressure 30.09 in    
Wind  
Wind Speed 12 mph (NNW)    
Max Wind Speed 23 mph    
Max Gust Speed 33 mph    
Visibility 10 miles    
Events Rain    
Averages and records for this station are not official NWS values.
T = Trace of Precipitation, MM = Missing Value Source: NWS Daily Summary

Daily Weather History Graph

Daily Weather History Graph

Search for Another Location

Airport or City:

Trip Planner

Search our weather history database for the weather conditions in past years. The results will help you decide how hot, cold, wet, or windy it might be!

Date:

Astronomy

Jan. 31, 2013 Rise Set
Actual Time 7:09 AM EST 6:11 PM EST
Civil Twilight 6:45 AM EST 6:35 PM EST
Nautical Twilight 6:17 AM EST 7:02 PM EST
Astronomical Twilight 5:50 AM EST 7:29 PM EST
Moon 10:33 PM EST 9:43 AM EST
Length of Visible Light 11h 50m
Length of Day
11h 02m
Waning Gibbous, 80% of the Moon is Illuminated
Jan 31
Waning Gibbous
Feb 3
Last Quarter
Feb 10
New
Feb 17
First Quarter
Feb 25
Full

Hourly Weather History & Observations

Time (EST) Temp. Dew Point Humidity Pressure Visibility Wind Dir Wind Speed Gust Speed Precip Events Conditions
12:53 AM 75.0 °F 70.0 °F 84% 30.00 in 10.0 mi South 8.1 mph - N/A   Clear
1:53 AM 73.9 °F 71.1 °F 91% 29.99 in 10.0 mi South 5.8 mph - N/A   Clear
2:53 AM 73.9 °F 70.0 °F 87% 29.98 in 10.0 mi South 4.6 mph - N/A   Partly Cloudy
3:53 AM 75.0 °F 69.1 °F 82% 29.97 in 10.0 mi South 6.9 mph - N/A   Scattered Clouds
4:53 AM 75.0 °F 70.0 °F 84% 29.98 in 10.0 mi South 8.1 mph - N/A   Partly Cloudy
5:56 AM 75.2 °F 71.6 °F 89% 29.99 in 10.0 mi SSW 10.4 mph - N/A   Clear
6:53 AM 75.0 °F 71.1 °F 87% 30.01 in 10.0 mi SSW 9.2 mph - N/A   Scattered Clouds
7:53 AM 75.9 °F 72.0 °F 87% 30.03 in 10.0 mi SW 9.2 mph - N/A   Scattered Clouds
8:42 AM 71.6 °F 68.0 °F 88% 30.08 in 10.0 mi NNW 18.4 mph 27.6 mph N/A   Mostly Cloudy
8:51 AM 69.8 °F 66.2 °F 88% 30.09 in 10.0 mi NNW 20.7 mph 33.4 mph N/A   Mostly Cloudy
8:53 AM 70.0 °F 66.0 °F 87% 30.09 in 8.0 mi NNW 21.9 mph 33.4 mph 0.00 in Rain Light Rain
9:06 AM 69.8 °F 66.2 °F 88% 30.10 in 10.0 mi North 23.0 mph 29.9 mph 0.02 in   Overcast
9:53 AM 69.1 °F 64.9 °F 87% 30.12 in 10.0 mi North 18.4 mph 25.3 mph 0.03 in   Mostly Cloudy
10:53 AM 71.1 °F 64.0 °F 78% 30.12 in 10.0 mi North 17.3 mph 20.7 mph N/A   Mostly Cloudy
11:14 AM 71.6 °F 62.6 °F 73% 30.12 in 10.0 mi North 16.1 mph 21.9 mph N/A   Mostly Cloudy
11:50 AM 71.6 °F 62.6 °F 73% 30.12 in 10.0 mi North 13.8 mph - N/A   Overcast
11:53 AM 71.1 °F 63.0 °F 75% 30.12 in 10.0 mi North 15.0 mph - N/A   Mostly Cloudy
12:51 PM 71.6 °F 62.6 °F 73% 30.11 in 10.0 mi North 16.1 mph - N/A   Mostly Cloudy
12:53 PM 72.0 °F 62.1 °F 71% 30.11 in 10.0 mi NNW 17.3 mph - N/A   Mostly Cloudy
1:54 PM 69.8 °F 62.6 °F 78% 30.08 in 10.0 mi North 15.0 mph 21.9 mph N/A   Overcast
2:53 PM 70.0 °F 62.1 °F 76% 30.08 in 10.0 mi North 15.0 mph - N/A   Overcast
3:53 PM 69.1 °F 61.0 °F 75% 30.09 in 10.0 mi North 17.3 mph - N/A   Overcast
4:53 PM 68.0 °F 61.0 °F 78% 30.10 in 10.0 mi North 15.0 mph - N/A   Overcast
5:53 PM 66.9 °F 57.9 °F 73% 30.12 in 10.0 mi NNW 18.4 mph 23.0 mph N/A   Overcast
6:53 PM 66.0 °F 55.0 °F 68% 30.13 in 10.0 mi NNW 16.1 mph 23.0 mph N/A   Overcast
7:53 PM 66.0 °F 54.0 °F 65% 30.15 in 10.0 mi North 16.1 mph 23.0 mph N/A   Mostly Cloudy
8:53 PM 66.0 °F 55.9 °F 70% 30.16 in 10.0 mi North 15.0 mph - N/A   Overcast
9:53 PM 66.9 °F 55.9 °F 68% 30.17 in 10.0 mi North 15.0 mph - N/A   Overcast
10:53 PM 66.9 °F 57.0 °F 70% 30.18 in 10.0 mi North 13.8 mph - N/A   Clear
11:53 PM 66.9 °F 55.0 °F 66% 30.17 in 10.0 mi North 9.2 mph - N/A   Clear